1486486800.3,12180,11.94,72800.3,-8.85,-34.01,-32.01,0,*59
1486486801.56,12181,11.94,72802.8,-8.85,-33.89,-31.85,0,*50
1486486802.82,12182,11.94,72800.5,-8.83,-34.01,-31.85,0,*52
1486486804.06,12183,11.94,72802.0,-8.85,-34.07,-32.07,0,*5A
1486486805.3,12184,11.94,72800.0,-8.85,-33.95,-31.91,0,*5D
1486486806.53,12185,11.94,72802.3,-8.87,-33.95,-31.79,0,*58
1486486807.8,12186,11.94,72802.5,-8.85,-34.19,-32.07,0,*50
1486486809.04,12187,11.94,72804.3,-8.87,-34.13,-32.23,0,*5F
1486486810.31,12188,11.94,72800.5,-8.87,-34.13,-32.07,0,*56
1486486811.58,12189,11.94,72802.5,-8.87,-34.13,-32.07,0,*57
1486486812.84,12190,11.94,72800.3,-8.87,-34.13,-31.95,0,*57
1486486814.11,12191,11.94,72800.5,-8.87,-34.13,-31.91,0,*52
1486486815.35,12192,11.94,72802.5,-8.87,-34.13,-32.13,0,*58
1486486816.58,12193,11.94,72802.0,-8.87,-34.25,-32.23,0,*5F
1486486817.87,12194,11.94,72802.8,-8.87,-34.31,-32.29,0,*57
1486486819.13,12195,11.94,72804.3,-8.87,-34.31,-32.23,0,*5C
1486486820.37,12196,11.94,72802.0,-8.87,-34.13,-32.13,0,*5C
1486486821.63,12197,11.94,72800.3,-8.87,-34.25,-32.29,0,*51
1486486822.86,12198,11.94,72804.5,-8.87,-34.25,-32.13,0,*57
1486486824.1,12199,11.94,72800.0,-8.89,-33.95,-31.95,0,*59
1486486825.34,12200,11.94,72802.8,-8.89,-34.07,-31.95,0,*56
1486486826.55,12201,11.94,72804.5,-8.89,-33.95,-31.79,0,*59
1486486827.82,12202,11.94,72802.0,-8.87,-34.13,-32.07,0,*57
1486486829.06,12203,11.94,72800.0,-8.89,-34.13,-32.07,0,*58
1486486830.3,12204,11.88,72800.8,-8.89,-33.95,-31.91,0,*5A
1486486831.54,12205,11.94,72802.5,-8.89,-34.07,-32.07,0,*5B
1486486832.78,12206,11.94,72802.5,-8.89,-34.07,-31.91,0,*54
1486486834.01,12207,11.94,72800.3,-8.89,-33.95,-31.73,0,*55
1486486835.27,12208,11.94,72804.8,-8.91,-34.19,-32.01,0,*56
1486486836.51,12209,11.94,72804.0,-8.89,-34.13,-31.95,0,*5A
1486486837.75,12210,11.94,72804.0,-8.89,-34.13,-31.95,0,*52
1486486839.01,12211,11.94,72804.0,-8.91,-34.31,-32.01,0,*54
1486486840.25,12212,11.94,72802.8,-8.89,-34.13,-32.07,0,*58
1486486841.49,12213,11.94,72800.0,-8.89,-34.07,-31.91,0,*50
1486486842.7,12214,11.88,72800.8,-8.89,-34.13,-32.13,0,*5B
1486486843.94,12215,11.88,72800.8,-8.89,-34.13,-31.95,0,*57
1486486845.21,12216,11.94,72804.5,-8.91,-34.13,-31.95,0,*5D
1486486846.42,12217,11.94,72800.5,-8.89,-34.13,-32.13,0,*58
1486486847.68,12218,11.94,72802.5,-8.91,-34.13,-31.95,0,*53
1486486848.97,12219,11.94,72802.5,-8.91,-34.31,-31.95,0,*52
1486486850.25,12220,11.94,72802.5,-8.91,-34.19,-31.95,0,*52
1486486851.49,12221,11.94,72800.3,-8.91,-34.13,-32.01,0,*57
1486486852.75,12222,11.88,72800.5,-8.91,-34.13,-31.95,0,*5A
1486486854.01,12223,11.94,72802.0,-8.91,-34.13,-31.95,0,*5B
1486486855.27,12224,11.94,72802.0,-8.91,-34.19,-32.01,0,*58
1486486856.53,12225,11.94,72802.5,-8.91,-34.13,-31.95,0,*5D
1486486857.79,12226,11.94,72800.3,-8.91,-34.13,-31.95,0,*5E
1486486859.03,12227,11.88,72800.0,-8.89,-34.13,-31.95,0,*56
1486486860.27,12228,11.94,72802.5,-8.91,-34.13,-31.79,0,*52
1486486861.52,12229,11.94,72802.5,-8.91,-34.01,-31.67,0,*5F
1486486862.78,12230,11.94,72802.0,-8.91,-34.01,-32.01,0,*54
1486486864.04,12231,11.94,72800.3,-8.91,-34.19,-32.01,0,*5C
1486486865.32,12232,11.94,72800.3,-8.91,-34.35,-32.19,0,*58
1486486866.55,12233,11.88,72800.5,-8.91,-34.13,-32.01,0,*54
1486486867.81,12234,11.94,72802.5,-8.91,-34.31,-32.13,0,*50
1486486869.07,12235,11.94,72802.8,-8.91,-34.31,-32.13,0,*51
1486486870.33,12236,11.94,72802.0,-8.93,-34.19,-31.85,0,*56
1486486871.59,12237,11.94,72802.8,-8.91,-34.13,-31.95,0,*5E
1486486872.85,12238,11.88,72800.0,-8.91,-34.31,-32.01,0,*5F
1486486874.09,12239,11.94,72800.0,-8.93,-34.25,-32.07,0,*5F
1486486875.35,12240,11.94,72802.0,-8.93,-34.19,-31.91,0,*52
1486486876.59,12241,11.94,72800.8,-8.93,-34.25,-32.07,0,*50
1486486877.86,12242,11.94,72802.0,-8.93,-34.35,-32.07,0,*52
1486486879.06,12243,11.94,72806.0,-8.93,-34.25,-32.01,0,*54
1486486880.27,12244,11.94,72802.0,-8.93,-34.25,-32.01,0,*53
1486486881.51,12245,11.94,72802.8,-8.95,-34.25,-32.01,0,*54
1486486882.74,12246,11.88,72800.8,-8.95,-34.25,-32.01,0,*57
1486486883.95,12247,11.94,72802.5,-8.93,-34.25,-32.01,0,*50
1486486885.23,12248,11.94,72802.5,-8.91,-34.19,-31.85,0,*5D
1486486886.46,12249,11.94,72800.8,-8.93,-34.19,-32.01,0,*51
1486486887.7,12250,11.94,72800.3,-8.95,-34.25,-32.01,0,*50
1486486888.98,12251,11.94,72800.5,-8.95,-34.19,-31.85,0,*51
1486486890.24,12252,11.94,72800.8,-8.93,-34.19,-31.85,0,*54
1486486891.48,12253,11.94,72802.0,-8.95,-34.25,-32.01,0,*53
1486486892.73,12254,11.88,72798.8,-8.93,-34.19,-31.73,0,*5B
1486486894.0,12255,11.94,72802.8,-8.93,-34.19,-31.91,0,*56
1486486895.26,12256,11.94,72802.5,-8.95,-34.25,-31.85,0,*59
1486486896.49,12257,11.94,72800.5,-8.93,-34.35,-32.01,0,*50
1486486897.78,12258,11.94,72802.5,-8.95,-34.19,-31.91,0,*5D
1486486898.99,12259,11.94,72802.0,-8.93,-34.25,-32.01,0,*5F
1486486900.25,12260,11.88,72798.5,-8.95,-34.25,-32.07,0,*55
1486486901.51,12261,11.94,72802.8,-8.95,-34.25,-32.07,0,*54
1486486902.72,12262,11.94,72802.5,-8.93,-34.25,-32.01,0,*57
1486486904.01,12263,11.94,72802.8,-8.95,-34.35,-32.07,0,*57
1486486905.24,12264,11.94,72800.8,-8.95,-34.41,-32.01,0,*55
1486486906.47,12265,11.88,72800.8,-8.95,-34.25,-32.01,0,*56
1486486907.73,12266,11.94,72802.5,-8.95,-34.25,-31.91,0,*5F
1486486908.99,12267,11.94,72802.0,-8.95,-34.25,-31.85,0,*5B
1486486910.25,12268,11.94,72800.5,-8.95,-34.25,-31.85,0,*54
1486486911.48,12269,11.94,72802.5,-8.95,-34.25,-32.01,0,*5A
1486486912.74,12270,11.94,72800.8,-8.95,-34.35,-32.01,0,*53
1486486913.98,12271,11.94,72802.5,-8.93,-34.25,-31.85,0,*5A
1486486915.23,12272,11.94,72802.5,-8.95,-34.25,-31.85,0,*5F
1486486916.46,12273,11.94,72802.8,-8.95,-34.25,-32.01,0,*51
1486486917.72,12274,11.94,72800.3,-8.95,-34.25,-31.85,0,*59
1486486918.98,12275,11.94,72804.3,-8.95,-34.25,-31.85,0,*58
1486486920.22,12276,11.94,72802.0,-8.93,-34.25,-31.91,0,*58
1486486921.45,12277,11.94,72802.3,-8.93,-34.35,-32.01,0,*52
1486486922.71,12278,11.94,72800.8,-8.95,-34.25,-31.85,0,*55
1486486924.0,12279,11.94,72800.3,-8.95,-34.35,-31.91,0,*50
1486486925.25,12280,11.94,72802.3,-8.95,-34.25,-31.85,0,*52
1486486926.51,12281,11.94,72800.8,-8.95,-34.25,-31.85,0,*53
1486486927.8,12282,11.88,72798.3,-8.95,-34.19,-31.85,0,*5F
1486486929.08,12283,11.94,72802.0,-8.95,-34.19,-31.85,0,*5E
1486486930.34,12284,11.88,72798.8,-8.95,-34.25,-31.91,0,*53
1486486931.63,12285,11.94,72804.0,-8.95,-34.35,-31.91,0,*53
1486486932.89,12286,11.94,72800.3,-8.95,-34.35,-32.01,0,*5A
1486486934.17,12287,11.94,72800.5,-8.95,-34.35,-31.91,0,*51
1486486935.46,12288,11.94,72804.8,-8.95,-34.35,-31.91,0,*5E
1486486936.67,12289,11.94,72802.5,-8.93,-34.25,-32.01,0,*52
1486486937.9,12290,11.88,72798.3,-8.95,-34.41,-32.01,0,*5E
1486486939.16,12291,11.94,72802.0,-8.95,-34.25,-31.91,0,*57
1486486940.4,12292,11.94,72802.3,-8.93,-34.35,-32.01,0,*59
1486486941.66,12293,11.94,72800.5,-8.95,-34.25,-31.85,0,*50
1486486942.89,12294,11.88,72798.8,-8.93,-34.25,-31.91,0,*54
1486486944.1,12295,11.94,72802.8,-8.93,-34.41,-32.01,0,*5D
1486486945.34,12296,11.88,72800.5,-8.93,-34.41,-32.07,0,*58
1486486946.62,12297,11.94,72802.5,-8.95,-34.35,-31.73,0,*5C
1486486947.86,12298,11.94,72802.3,-8.95,-34.59,-32.23,0,*5F
1486486949.16,12299,11.88,72800.8,-8.95,-34.53,-32.07,0,*52
1486486950.45,12300,11.88,72798.5,-8.95,-34.53,-32.07,0,*53
1486486951.67,12301,11.94,72804.3,-8.97,-34.77,-32.23,0,*50
1486486952.93,12302,11.94,72802.0,-8.97,-34.65,-32.29,0,*5A
1486486954.19,12303,11.94,72802.5,-8.95,-34.41,-32.07,0,*53
1486486955.46,12304,11.94,72800.0,-8.95,-34.59,-32.07,0,*5D
1486486956.71,12305,11.94,72804.8,-8.97,-34.47,-32.07,0,*51
1486486957.95,12306,11.94,72800.5,-8.97,-34.65,-32.23,0,*54
1486486959.17,12307,11.94,72800.5,-8.97,-34.77,-32.23,0,*56
1486486960.42,12308,11.94,72802.8,-8.97,-34.59,-32.07,0,*53
1486486961.65,12309,11.94,72804.3,-8.97,-34.41,-31.95,0,*53
1486486962.89,12310,11.94,72800.0,-8.97,-34.41,-31.95,0,*5B
1486486964.16,12311,11.94,72800.3,-8.95,-34.59,-32.19,0,*56
1486486965.43,12312,11.94,72802.0,-8.95,-34.59,-32.07,0,*5A
1486486966.67,12313,11.88,72800.5,-8.95,-34.71,-32.23,0,*57
1486486967.91,12314,11.94,72800.0,-8.97,-34.77,-32.29,0,*5E
1486486969.16,12315,11.94,72800.5,-8.97,-34.65,-32.23,0,*56
1486486970.4,12316,11.88,72800.0,-8.97,-34.47,-32.07,0,*53
1486486971.65,12317,11.88,72798.5,-8.97,-34.59,-32.07,0,*5D
1486486972.88,12318,11.88,72802.5,-8.97,-34.41,-31.91,0,*57
1486486974.15,12319,11.94,72802.0,-8.95,-34.59,-32.07,0,*51
1486486975.39,12320,11.94,72800.8,-8.99,-34.77,-32.23,0,*5D
1486486976.61,12321,11.88,72802.0,-8.97,-34.77,-32.23,0,*52
1486486977.87,12322,11.88,72802.0,-8.97,-34.31,-31.91,0,*59
1486486979.14,12323,11.94,72800.5,-8.95,-34.71,-32.07,0,*52
1486486980.38,12324,11.94,72800.5,-8.97,-34.83,-32.23,0,*5C
1486486981.62,12325,11.94,72800.5,-8.97,-34.77,-32.29,0,*5C
1486486982.86,12326,11.94,72800.8,-8.97,-34.95,-32.23,0,*59
1486486984.12,12327,11.88,72798.8,-8.99,-34.65,-32.13,0,*5A
1486486985.37,12328,11.94,72802.5,-8.97,-34.65,-32.23,0,*58
1486486986.64,12329,11.94,72800.3,-8.95,-34.59,-32.07,0,*52
1486486987.88,12330,11.94,72802.0,-8.99,-34.47,-31.79,0,*53
1486486989.14,12331,11.94,72802.0,-8.99,-34.83,-32.23,0,*56
1486486990.38,12332,11.94,72802.8,-8.97,-34.83,-32.23,0,*5B
1486486991.67,12333,11.94,72802.3,-8.99,-34.65,-31.95,0,*52
1486486992.94,12334,11.94,72800.5,-8.99,-34.47,-31.91,0,*51
1486486994.18,12335,11.94,72800.3,-8.97,-34.65,-32.13,0,*57
1486486995.42,12336,11.88,72798.3,-8.97,-34.83,-32.23,0,*5F
1486486996.66,12337,11.88,72802.5,-8.95,-34.77,-32.23,0,*57
1486486997.92,12338,11.94,72802.5,-8.99,-34.95,-32.39,0,*53
1486486999.16,12339,11.88,72802.3,-8.97,-34.83,-32.23,0,*50
1486487000.43,12340,11.88,72798.3,-8.99,-35.01,-32.45,0,*5B
1486487001.67,12341,11.88,72800.5,-8.99,-35.01,-32.39,0,*51
1486487002.89,12342,11.88,72800.8,-8.97,-35.01,-32.39,0,*5C
1486487004.18,12343,11.94,72802.8,-8.99,-34.83,-32.29,0,*59
1486487005.44,12344,11.94,72800.8,-8.99,-34.95,-32.23,0,*53
1486487006.7,12345,11.94,72800.3,-8.99,-35.13,-32.45,0,*5D
1486487007.94,12346,11.94,72802.0,-8.99,-35.01,-32.39,0,*56
1486487009.2,12347,11.88,72796.5,-8.99,-34.95,-32.23,0,*50
1486487010.47,12348,11.88,72802.3,-8.99,-34.83,-32.23,0,*58
1486487011.73,12349,11.94,72802.0,-8.99,-34.83,-32.13,0,*5A
1486487012.99,12350,11.88,72800.3,-8.99,-34.83,-32.23,0,*51
1486487014.25,12351,11.94,72800.3,-8.99,-35.01,-32.29,0,*51
1486487015.49,12352,11.94,72804.0,-9.03,-35.01,-32.35,0,*5D
1486487016.78,12353,11.94,72800.5,-9.03,-35.07,-32.45,0,*5D
1486487018.05,12354,11.94,72800.5,-8.99,-34.95,-32.23,0,*52
1486487019.31,12355,11.88,72800.5,-8.99,-34.95,-32.23,0,*53
1486487020.55,12356,11.88,72800.8,-9.03,-35.01,-32.35,0,*59
1486487021.82,12357,11.94,72802.5,-9.03,-35.01,-32.29,0,*55
1486487023.08,12358,11.94,72802.0,-8.99,-34.83,-32.13,0,*5A
1486487024.37,12359,11.88,72800.5,-8.99,-34.65,-32.07,0,*56
1486487025.59,12360,11.94,72802.0,-8.97,-35.01,-32.23,0,*57
1486487026.88,12361,11.94,72802.5,-9.03,-35.07,-32.45,0,*5C
1486487028.15,12362,11.94,72800.0,-8.99,-34.77,-32.07,0,*5D
1486487029.41,12363,11.94,72802.3,-8.99,-34.83,-32.13,0,*52
1486487030.7,12364,11.94,72800.3,-9.03,-35.07,-32.45,0,*59
1486487031.94,12365,11.94,72802.5,-9.03,-34.89,-32.13,0,*5C
1486487033.2,12366,11.88,72800.8,-9.03,-35.07,-32.35,0,*5C
1486487034.49,12367,11.94,72800.5,-9.03,-35.07,-32.45,0,*5A
1486487035.76,12368,11.94,72800.8,-9.03,-35.23,-32.51,0,*56
1486487037.0,12369,11.88,72802.5,-9.05,-34.89,-32.29,0,*5F
1486487038.24,12370,11.88,72798.5,-9.03,-35.01,-32.13,0,*59
1486487039.49,12371,11.94,72800.3,-8.99,-35.13,-32.29,0,*50
1486487040.7,12372,11.88,72800.8,-9.05,-35.17,-32.35,0,*5E
1486487041.99,12373,11.88,72800.0,-9.03,-35.07,-32.29,0,*55
1486487043.22,12374,11.94,72802.3,-9.03,-35.17,-32.35,0,*5E
1486487044.48,12375,11.94,72802.0,-9.03,-35.17,-32.45,0,*58
1486487045.73,12376,11.94,72800.8,-9.05,-35.07,-32.35,0,*5B
1486487047.02,12377,11.88,72800.8,-9.03,-35.07,-32.19,0,*52
1486487048.25,12378,11.94,72804.3,-9.03,-35.17,-32.35,0,*52
1486487049.49,12379,11.94,72802.0,-9.05,-35.23,-32.35,0,*52
1486487050.76,12380,11.94,72804.5,-9.03,-35.07,-32.35,0,*54
1486487051.99,12381,11.88,72800.5,-9.03,-35.17,-32.35,0,*54
1486487053.28,12382,11.94,72804.0,-9.03,-35.07,-32.29,0,*5B
1486487054.49,12383,11.88,72800.0,-9.05,-35.17,-32.35,0,*50
1486487055.75,12384,11.94,72802.0,-9.03,-35.23,-32.35,0,*56
1486487056.99,12385,11.94,72800.5,-9.05,-35.23,-32.35,0,*51
1486487058.22,12386,11.94,72804.3,-9.03,-35.17,-32.35,0,*53
1486487059.48,12387,11.94,72802.3,-9.03,-35.29,-32.45,0,*58
1486487060.78,12388,11.94,72802.0,-9.03,-35.07,-32.19,0,*52
1486487062.05,12389,11.94,72800.5,-9.05,-35.07,-32.19,0,*55
1486487063.31,12390,11.94,72802.3,-9.03,-35.17,-32.19,0,*5A
1486487064.57,12391,11.94,72802.8,-8.99,-35.13,-32.29,0,*5E
1486487065.82,12392,11.94,72802.8,-9.03,-35.17,-32.29,0,*5B
1486487067.04,12393,11.94,72806.8,-9.05,-35.29,-32.51,0,*5E
1486487068.28,12394,11.88,72798.3,-9.05,-35.17,-32.29,0,*5B
1486487069.54,12395,11.88,72800.3,-9.05,-35.23,-32.29,0,*5D
1486487070.82,12396,11.94,72802.3,-9.03,-35.07,-32.29,0,*5E
1486487072.04,12397,11.88,72802.0,-9.05,-34.89,-32.13,0,*57
1486487073.27,12398,11.94,72802.8,-9.05,-35.17,-32.29,0,*57
1486487074.53,12399,11.94,72804.3,-9.03,-35.29,-32.45,0,*57
1486487075.77,12400,11.88,72800.3,-9.05,-35.29,-32.45,0,*56
1486487077.01,12401,11.94,72802.5,-9.05,-35.29,-32.45,0,*57
1486487078.27,12402,11.94,72800.0,-9.05,-35.41,-32.45,0,*5A
1486487079.51,12403,11.94,72804.8,-9.03,-35.29,-32.35,0,*54
1486487080.78,12404,11.88,72798.5,-9.05,-35.07,-32.19,0,*57
1486487082.01,12405,11.88,72796.8,-9.05,-35.17,-32.29,0,*54
1486487083.25,12406,11.94,72802.5,-9.03,-35.29,-32.35,0,*51
1486487084.46,12407,11.94,72804.5,-9.05,-35.17,-32.13,0,*5F
1486487085.73,12408,11.88,72798.5,-9.05,-35.07,-32.29,0,*58
1486487086.99,12409,11.94,72800.3,-9.03,-35.47,-32.45,0,*51
1486487088.27,12410,11.94,72802.8,-9.03,-35.41,-32.45,0,*5F
1486487089.54,12411,11.88,72802.3,-9.05,-35.07,-32.19,0,*53
1486487090.78,12412,11.94,72802.0,-9.05,-35.29,-32.29,0,*5F
1486487092.04,12413,11.88,72796.3,-9.05,-35.23,-32.29,0,*54
1486487093.3,12414,11.94,72802.3,-9.05,-35.23,-32.29,0,*53
1486487094.58,12415,11.94,72800.5,-9.03,-35.23,-32.29,0,*54
1486487095.81,12416,11.94,72802.3,-9.05,-35.41,-32.35,0,*58
1486487097.08,12417,11.88,72800.5,-9.05,-35.07,-32.19,0,*55
1486487098.34,12418,11.88,72800.0,-9.05,-35.23,-32.29,0,*5F
1486487099.59,12419,11.88,72800.5,-9.05,-35.29,-32.19,0,*57
1486487100.8,12420,11.94,72800.8,-9.05,-35.17,-32.13,0,*5A
1486487102.04,12421,11.88,72800.5,-9.05,-35.07,-32.13,0,*5A
1486487103.28,12422,11.94,72806.3,-9.05,-35.17,-32.19,0,*52
1486487104.52,12423,11.94,72802.0,-9.05,-35.07,-32.01,0,*5B
1486487105.78,12424,11.94,72800.3,-9.03,-35.07,-32.13,0,*59
1486487107.02,12425,11.88,72802.5,-9.05,-35.07,-32.13,0,*5E
1486487108.28,12426,11.94,72802.5,-9.03,-35.29,-32.29,0,*5E
1486487109.54,12427,11.94,72800.8,-9.05,-35.23,-32.29,0,*53
1486487110.78,12428,11.88,72800.5,-9.05,-35.29,-32.29,0,*56
1486487112.04,12429,11.94,72802.0,-9.03,-35.23,-32.13,0,*52
1486487113.28,12430,11.94,72800.5,-9.05,-35.29,-32.19,0,*5C
1486487114.55,12431,11.94,72802.8,-9.07,-35.29,-32.19,0,*5F
1486487115.81,12432,11.94,72804.5,-9.05,-35.23,-32.19,0,*54
1486487117.05,12433,11.94,72804.8,-9.05,-35.23,-32.13,0,*5F
1486487118.29,12434,11.88,72800.3,-9.05,-35.01,-31.85,0,*54
1486487119.53,12435,11.88,72800.8,-9.05,-35.23,-32.01,0,*5A
1486487120.76,12436,11.88,72800.5,-9.05,-35.17,-31.85,0,*51
1486487121.97,12437,11.94,72800.5,-9.05,-35.17,-32.01,0,*5F
1486487123.24,12438,11.88,72800.8,-9.05,-35.23,-32.19,0,*5E
1486487124.47,12439,11.94,72806.3,-9.05,-35.29,-32.29,0,*56
1486487125.71,12440,11.94,72800.8,-9.05,-35.17,-31.95,0,*51
1486487126.95,12441,11.88,72802.0,-9.03,-35.29,-32.13,0,*56
1486487128.19,12442,11.88,72800.3,-9.05,-35.07,-31.79,0,*50
1486487129.43,12443,11.88,72802.0,-9.05,-35.23,-32.01,0,*5B
1486487130.67,12444,11.94,72804.8,-9.05,-35.29,-32.19,0,*5F
1486487131.94,12445,11.94,72802.0,-9.03,-35.29,-32.19,0,*58
1486487133.18,12446,11.88,72800.3,-9.05,-35.07,-32.01,0,*58
1486487134.41,12447,11.94,72800.3,-9.05,-35.23,-32.13,0,*5C
1486487135.66,12448,11.94,72800.0,-9.05,-35.29,-32.19,0,*53
1486487136.9,12449,11.94,72802.3,-9.05,-35.29,-32.19,0,*52
1486487138.14,12450,11.88,72800.0,-9.05,-35.29,-32.29,0,*59
1486487139.41,12451,11.94,72800.8,-9.05,-35.07,-31.95,0,*50
1486487140.62,12452,11.88,72802.8,-9.05,-35.17,-32.01,0,*5C
1486487141.89,12453,11.88,72800.5,-9.05,-35.07,-31.95,0,*52
1486487143.13,12454,11.88,72802.3,-9.05,-35.07,-32.01,0,*5B
1486487144.34,12455,11.88,72802.0,-9.05,-35.17,-32.01,0,*5B
1486487145.6,12456,11.94,72802.8,-9.03,-35.01,-31.73,0,*5F
1486487146.87,12457,11.94,72802.3,-9.03,-35.17,-31.95,0,*51
1486487148.16,12458,11.94,72804.3,-9.03,-35.07,-31.95,0,*5F
1486487149.43,12459,11.94,72800.5,-9.03,-35.29,-32.19,0,*55
1486487150.66,12460,11.94,72806.3,-9.05,-35.23,-32.01,0,*5A
1486487151.93,12461,11.88,72802.5,-9.03,-35.17,-31.95,0,*54
1486487153.22,12462,11.88,72800.0,-9.03,-35.23,-31.95,0,*50
1486487154.48,12463,11.88,72800.0,-9.03,-35.17,-31.85,0,*57
1486487155.77,12464,11.94,72802.8,-9.03,-35.07,-31.85,0,*51
1486487157.03,12465,11.94,72804.0,-9.03,-35.17,-31.95,0,*50
1486487158.27,12466,11.94,72802.8,-9.05,-35.23,-32.01,0,*5C
1486487159.5,12467,11.94,72804.8,-9.05,-35.23,-32.01,0,*5D
1486487160.71,12468,11.94,72802.5,-9.05,-35.29,-32.01,0,*58
1486487161.96,12469,11.94,72804.0,-9.05,-35.29,-31.95,0,*57
1486487163.17,12470,11.94,72802.5,-9.05,-35.29,-32.01,0,*51
1486487164.43,12471,11.94,72804.0,-9.03,-35.23,-32.01,0,*5C
1486487165.72,12472,11.88,72800.0,-9.03,-35.23,-31.85,0,*50
1486487166.98,12473,11.94,72806.8,-9.03,-35.17,-31.85,0,*56
1486487168.21,12474,11.94,72802.0,-9.03,-35.29,-32.01,0,*53
1486487169.43,12475,11.94,72804.0,-9.05,-35.29,-32.01,0,*54
1486487170.68,12476,11.94,72800.8,-9.03,-35.23,-32.01,0,*5B
1486487171.92,12477,11.94,72802.3,-9.05,-35.41,-32.13,0,*5B
1486487173.16,12478,11.88,72800.8,-9.03,-35.01,-31.79,0,*59
1486487174.42,12479,11.88,72800.8,-9.05,-35.07,-31.85,0,*5B
1486487175.68,12480,11.94,72802.5,-9.03,-35.17,-31.85,0,*5A
1486487176.92,12481,11.94,72804.3,-9.05,-35.17,-31.85,0,*5D
1486487178.15,12482,11.94,72804.5,-9.05,-35.17,-31.85,0,*5E
1486487179.42,12483,11.94,72804.5,-9.05,-35.07,-31.73,0,*57
1486487180.66,12484,11.88,72800.3,-9.05,-35.01,-31.61,0,*55
1486487181.93,12485,11.94,72804.3,-9.03,-35.07,-31.79,0,*5D
1486487183.19,12486,11.94,72800.8,-9.03,-35.01,-31.73,0,*52
1486487184.45,12487,11.94,72802.5,-9.03,-35.17,-31.85,0,*5D
1486487185.69,12488,11.88,72802.3,-9.05,-34.89,-31.61,0,*58
1486487186.95,12489,11.88,72802.5,-9.05,-35.07,-31.73,0,*5D
1486487188.19,12490,11.94,72802.3,-9.03,-35.01,-31.79,0,*5F
1486487189.46,12491,11.88,72800.3,-9.05,-35.07,-31.85,0,*5D
1486487190.67,12492,11.94,72804.0,-9.05,-35.17,-31.79,0,*5C
1486487191.9,12493,11.94,72802.5,-9.03,-35.17,-31.79,0,*5B
1486487193.17,12494,11.88,72802.8,-9.03,-35.07,-31.79,0,*5D
1486487194.46,12495,11.88,72800.3,-9.03,-35.07,-31.61,0,*55
1486487195.72,12496,11.88,72800.0,-9.03,-34.89,-31.61,0,*51
1486487196.98,12497,11.88,72802.3,-9.03,-34.89,-31.73,0,*53
1486487198.25,12498,11.88,72802.3,-9.03,-35.01,-31.61,0,*5E
1486487199.52,12499,11.94,72802.0,-9.03,-35.01,-31.73,0,*5C
1486487200.75,12500,11.88,72800.5,-9.03,-35.17,-31.79,0,*50
1486487201.99,12501,11.88,72800.0,-9.05,-35.01,-31.73,0,*5A
1486487203.28,12502,11.88,72800.0,-9.03,-35.07,-31.73,0,*59
1486487204.51,12503,11.94,72804.0,-9.05,-35.17,-31.85,0,*56
1486487205.78,12504,11.88,72800.8,-9.03,-35.07,-31.79,0,*55
1486487207.06,12505,11.88,72802.3,-9.03,-35.07,-31.73,0,*5E
1486487208.3,12506,11.94,72802.3,-9.05,-35.07,-31.79,0,*51
1486487209.59,12507,11.94,72802.8,-9.03,-35.07,-31.73,0,*5C
1486487210.86,12508,11.88,72802.5,-9.03,-35.01,-31.73,0,*55
1486487212.09,12509,11.88,72802.0,-9.03,-35.17,-31.79,0,*59
1486487213.37,12510,11.88,72802.5,-9.03,-35.23,-31.73,0,*5C
1486487214.61,12511,11.94,72804.3,-9.03,-35.17,-31.79,0,*50
1486487215.84,12512,11.88,72802.5,-9.05,-34.89,-31.61,0,*5A
1486487217.11,12513,11.88,72802.5,-9.03,-35.17,-31.61,0,*5B
1486487218.37,12514,11.94,72804.8,-9.03,-35.23,-31.79,0,*52
1486487219.6,12515,11.94,72800.8,-9.05,-35.17,-31.73,0,*58
1486487220.86,12516,11.88,72800.8,-9.03,-35.17,-31.85,0,*54
1486487222.1,12517,11.94,72802.5,-9.05,-35.01,-31.61,0,*5E
1486487223.37,12518,11.88,72802.3,-9.03,-35.01,-31.61,0,*57
1486487224.62,12519,11.88,72800.0,-9.05,-35.01,-31.61,0,*50
1486487225.89,12520,11.88,72802.0,-9.03,-35.01,-31.61,0,*5C
1486487227.18,12521,11.94,72804.3,-9.03,-35.07,-31.61,0,*5B
1486487228.44,12522,11.88,72802.8,-9.03,-35.17,-31.73,0,*5A
1486487229.71,12523,11.88,72800.3,-9.03,-34.83,-31.45,0,*52
1486487230.98,12524,11.88,72800.3,-9.03,-34.83,-31.45,0,*55
1486487232.27,12525,11.94,72806.5,-9.03,-34.83,-31.57,0,*57
1486487233.53,12526,11.94,72804.5,-9.03,-35.01,-31.57,0,*5F
1486487234.78,12527,11.88,72800.0,-9.05,-34.83,-31.45,0,*50
1486487236.03,12528,11.88,72800.0,-9.05,-35.01,-31.61,0,*52
1486487237.29,12529,11.88,72800.3,-9.03,-34.89,-31.61,0,*54
1486487238.58,12530,11.94,72804.8,-9.03,-34.83,-31.39,0,*5B
1486487239.85,12531,11.88,72800.3,-9.05,-34.83,-31.57,0,*54
1486487241.12,12532,11.88,72800.0,-9.03,-34.71,-31.39,0,*54
1486487242.38,12533,11.94,72804.5,-9.03,-35.01,-31.57,0,*5B
1486487243.67,12534,11.88,72802.0,-8.99,-34.83,-31.39,0,*5D
1486487244.92,12535,11.88,72802.0,-9.03,-34.71,-31.45,0,*58
1486487246.19,12536,11.88,72802.8,-9.03,-35.01,-31.57,0,*5E
1486487247.48,12537,11.88,72802.0,-8.99,-34.95,-31.51,0,*57
1486487248.74,12538,11.94,72800.8,-8.99,-34.65,-31.33,0,*53
1486487249.98,12539,11.88,72800.8,-9.03,-34.89,-31.45,0,*53
1486487251.25,12540,11.88,72802.0,-9.03,-35.01,-31.57,0,*5F
1486487252.5,12541,11.94,72802.8,-9.03,-34.89,-31.57,0,*5F
1486487253.77,12542,11.88,72800.8,-9.03,-35.01,-31.57,0,*5D
1486487255.04,12543,11.88,72800.3,-9.03,-34.65,-31.29,0,*56
1486487256.34,12544,11.88,72802.5,-9.03,-34.65,-31.23,0,*5B
1486487257.58,12545,11.94,72800.8,-8.99,-34.77,-31.33,0,*5A
1486487258.82,12546,11.94,72806.3,-8.99,-34.47,-31.05,0,*5F
1486487260.08,12547,11.94,72806.3,-8.99,-34.65,-31.33,0,*5B
1486487261.35,12548,11.88,72800.3,-8.99,-34.65,-31.33,0,*54
1486487262.59,12549,11.88,72802.8,-8.99,-34.77,-31.33,0,*56
1486487263.82,12550,11.88,72802.8,-8.99,-34.77,-31.33,0,*5E
1486487265.06,12551,11.88,72802.5,-8.99,-34.77,-31.33,0,*5F
1486487266.33,12552,11.88,72800.5,-8.99,-34.77,-31.39,0,*56
1486487267.62,12553,11.88,72802.5,-8.99,-34.83,-31.39,0,*5C
1486487268.88,12554,11.88,72800.0,-8.99,-34.83,-31.33,0,*51
1486487270.15,12555,11.94,72802.0,-8.99,-34.77,-31.23,0,*5A
1486487271.44,12556,11.88,72800.5,-8.99,-34.65,-31.23,0,*5A
1486487272.71,12557,11.94,72802.5,-8.99,-34.65,-31.33,0,*5A
1486487273.95,12558,11.88,72802.5,-8.97,-34.65,-31.33,0,*5B
1486487275.18,12559,11.94,72804.5,-8.99,-34.41,-31.01,0,*53
1486487276.43,12560,11.94,72806.8,-8.99,-34.47,-31.17,0,*58
1486487277.64,12561,11.94,72806.0,-8.97,-34.77,-31.33,0,*52
1486487278.91,12562,11.88,72802.8,-8.99,-34.83,-31.33,0,*54
1486487280.17,12563,11.88,72804.3,-8.97,-34.83,-31.39,0,*51
1486487281.44,12564,11.88,72802.3,-8.97,-34.65,-31.23,0,*55
1486487282.73,12565,11.94,72804.5,-8.99,-34.65,-31.39,0,*51
1486487284.0,12566,11.94,72806.3,-8.99,-34.77,-31.23,0,*5A
1486487285.27,12567,11.88,72802.0,-8.99,-34.59,-31.23,0,*57
1486487286.51,12568,11.94,72806.3,-8.99,-34.77,-31.33,0,*55
1486487287.81,12569,11.88,72802.3,-8.99,-34.65,-31.23,0,*56
1486487289.1,12570,11.94,72806.0,-8.99,-34.65,-31.23,0,*5E
1486487290.38,12571,11.94,72806.0,-8.97,-34.65,-31.23,0,*51
1486487291.65,12572,11.94,72806.5,-8.99,-34.59,-31.23,0,*53
1486487292.92,12573,11.88,72800.3,-8.99,-34.59,-31.23,0,*52
1486487294.21,12574,11.88,72800.0,-8.99,-34.65,-31.23,0,*5A
1486487295.48,12575,11.94,72804.3,-8.99,-34.65,-31.17,0,*5C
1486487296.7,12576,11.88,72804.3,-8.97,-34.77,-31.33,0,*54
1486487297.94,12577,11.94,72806.3,-8.97,-34.65,-31.17,0,*50
1486487299.21,12578,11.88,72802.8,-8.97,-34.65,-31.23,0,*58
1486487300.46,12579,11.88,72804.5,-8.97,-34.65,-31.17,0,*5E